Location: ?????
(31.8092°N, 35.2590°E)
Time: 20:30:30
(UTC+00:00)

Cosmos 1455 Rocket - Pass Details

Date: 16 October 2021
Orbit: 604 x 630 km, 82.5° (Epoch: 04 December)

Event Time Altitude Azimuth Distance (km) Brightness Sun altitude
Rises 02:24:03 0° 22° (NNE) 2,923 6.8 -17.5°
Reaches altitude 10° 02:28:43 10° 67° (ENE) 2,006 6.7 -16.5°
Maximum altitude 02:29:13 10° 73° (ENE) 1,994 6.8 -16.4°
Drops below altitude 10° 02:29:43 10° 80° (E) 2,003 7.0 -16.3°
Sets 02:34:19 0° 124° (SE) 2,897 7.5 -15.3°
